Regional Weather Roundup
Issued by NWS

Home | Current Version | Previous Version | Graphics & Text | Print | Product List | Glossary On
Versions: 1 2 3 4 5 6 7 8 9 10 11 12 13 14 15 16 17 18 19 20 21 22 23 24 25 26 27 28 29 30 31 32 33 34 35 36 37 38 39 40 41 42 43 44 45 46 47 48 49 50
000
ASUS43 KFSD 230202
RWRSD

WEATHER ROUNDUP FOR SOUTH DAKOTA
NATIONAL WEATHER SERVICE SIOUX FALLS SD
900 PM CDT FRI AUG 22 2014

NOTE: "FAIR" INDICATES FEW OR NO CLOUDS BELOW 12,000 FEET WITH NO
SIGNIFICANT WEATHER AND/OR OBSTRUCTIONS TO VISIBILITY.


SDZ001>005-009-010-012>017-230300-
NORTHWEST AND NORTH CENTRAL SOUTH DAKOTA

CITY           SKY/WX    TMP DP  RH WIND       PRES   REMARKS
BUFFALO          N/A     68  60  75 E10       29.99R
FAITH            N/A     68  63  84 NE10      30.02R
MOBRIDGE       MOCLDY    68  64  87 NE8       29.98S
$$

SDZ012>016-024>037-041>051-057-063-072>074-230300-
SOUTHWEST AND SOUTH CENTRAL SOUTH DAKOTA

CITY           SKY/WX    TMP DP  RH WIND       PRES   REMARKS
RAPID CTY ARPT MOCLDY    71  63  75 W5        30.01R
PIERRE         MOCLDY    68  65  90 NE13      29.96R
ELLSWORTH AFB  CLOUDY    72  64  75 NE8       30.01R
PHILIP         PTCLDY    75  64  68 E10       29.95R
PINE RIDGE     CLOUDY    70  60  70 E5        29.99R
WINNER         FAIR      77  68  73 SE10      29.96R
$$

SDZ004>011-016>023-039-040-230300-
NORTHEAST SOUTH DAKOTA

CITY           SKY/WX    TMP DP  RH WIND       PRES   REMARKS
ABERDEEN       CLOUDY    71  68  90 NE8       30.00S
WATERTOWN      MOCLDY    71  69  93 NE8       30.01R
SISSETON         N/A     71  69  93 NE6       30.01R
$$

SDZ017-020-022-023-036>040-048>070-230300-
SOUTHEAST SOUTH DAKOTA

CITY           SKY/WX    TMP DP  RH WIND       PRES   REMARKS
SIOUX FALLS    CLOUDY    77  69  76 NE10      29.99R
HURON          CLOUDY    76  69  79 NE7       29.96R
CHAMBERLAIN    MOCLDY    74  69  86 E7        29.97R
MITCHELL       PTCLDY    77  71  82 SE6       29.96R
YANKTON        MOCLDY    77  72  83 NE6       29.96R
$$

ABBREVIATIONS USED IN REMARKS
   TC - TEMPERATURE IN CELSIUS
  WCI - WIND CHILL INDEX
   HX - HEAT INDEX
  VSB - VISIBILITY



USA.gov is the U.S. government's official web portal to all federal, state and local government web resources and services.